Skip Page Navigation
NASA JPL Caltech
NASA Logo - Jet Propulsion Laboratory + View the NASA Portal
+ Center for Near-Earth Object Studies
JPL Home Earth Solar System Stars & Galaxies Technology
JPL Solar System Dynamics
BODIES ORBITS EPHEMERIDES TOOLS PHYSICAL DATA DISCOVERY FAQ SITE MAP
JPL Small-Body Database Browser
Search: [ help ]  
344421 (2002 CL182)
Classification: Main-belt Asteroid          SPK-ID: 2344421
Ephemeris | Orbit Diagram | Orbital Elements | Mission Design | Physical Parameters | Discovery Circumstances | Close-Approach Data ]

[ show orbit diagram ]
Orbital Elements at Epoch 2459396.5 (2021-Jul-01.0) TDB
Reference: JPL 13 (heliocentric ecliptic J2000)
 Element Value Uncertainty (1-sigma)   Units 
e .1393373694680214 1.6618e-07  
a 2.478536980716881 2.725e-08 au
q 2.133184157694579 3.9493e-07 au
i 1.14818292902849 9.1381e-06 deg
node 141.2000082838173 0.00046437 deg
peri 59.22020030652842 0.00046539 deg
M 300.0251633895128 2.9191e-05 deg
tp 2459633.942307571027
(2022-Feb-23.44230757)
0.00011738 TDB
period 1425.25158143779
3.90
2.3504e-05
6.435e-08
d
yr
n .2525869851249931 4.1655e-09 deg/d
Q 2.823889803739183 3.1047e-08 au
  Orbit Determination Parameters
   # obs. used (total)      149  
   data-arc span      6906 days (18.91 yr)  
   first obs. used      2002-01-13  
   last obs. used      2020-12-10  
   planetary ephem.      DE441  
   SB-pert. ephem.      SB441-N16  
   condition code      0  
   norm. resid. RMS      .57241  
   source      ORB  
   producer      Otto Matic  
   solution date      2021-Apr-14 08:32:15  

Additional Information
 Earth MOID = 1.13149 au 
 Jupiter MOID = 2.13015 au 
 T_jup = 3.466 
[ show covariance matrix ]

Ephemeris | Orbit Diagram | Orbital Elements | Mission Design | Physical Parameters | Discovery Circumstances | Close-Approach Data ]

Physical Parameter Table
Parameter Symbol Value Units Sigma Reference Notes
absolute magnitude H 17.45   n/a MPCxxxxx  

344421 (2002 CL182)          Discovered 2002-Feb-10 by LINEAR at Socorro
Reference: 20121128/Numbers.arcLast Updated: 2012-12-03

[ show close-approach data ]
Alternate Designations
 2002 CL182 = 2006 BM166 
Ephemeris | Orbit Diagram | Orbital Elements | Mission Design | Physical Parameters | Discovery Circumstances | Close-Approach Data ]
ABOUT SSD CREDITS/AWARDS PRIVACY/COPYRIGHT GLOSSARY LINKS
FirstGov 2021-Aug-02 21:58 UT
(server date/time)  
NASA Home Page
Site Manager:   Ryan S. Park
Webmaster  Alan B. Chamberlin